Flag for France Weather past 2 weeks in Douai, France

Now
48 °F

Partly sunny.


Feels Like: 41 °F
Forecast: 46 / 51 °F
Wind: 22 mph from South

Location: Lille Airport

Current Time: Feb 28, 2015 at 3:52:43 PM

Latest Report: Feb 28, 2015 at 3:30 PM


Visibility: N/A

Pressure: 29.89 "Hg

Humidity: 66%

Dew point: 37 °F

Location of DouaiLocation

Historic Weather in Douai — Graph

°F

Douai temperature yesterday

Maximum temperature yesterday: 46 °F (at 2:30 PM)
Minimum temperature yesterday: 34 °F (at 10:30 PM)
Average temperature yesterday: 41 °F

Past Weeks' High & Low Weather Summary

 TemperatureHumidityPressure
High50 °F (Feb 13, 2:30 PM)100% (Feb 14, 10:00 PM)30.77 "Hg (Feb 14, 10:00 PM)
Low27 °F (Feb 18, 5:00 AM)53% (Feb 27, 4:00 PM)29.36 "Hg (Feb 23, 4:00 AM)
Average40 °F89%29.95 "Hg
* Reported Feb 13 2:00 PM — Feb 28 2:30 PM, Douai, Weather by CustomWeather, © 2015

Note: Actual official high and low records may vary slightly from our data, if they occured in-between our weather recording intervals... More about our weather records

Advertising

Douai weather history for previous 24 hours

 ConditionsComfort  
Time TempWeatherWind HumidityBarometerVisibility
2:30 PM
Sat, Feb 28
46 °FPartly sunny.23 mph66%29.92 "HgN/A
2:00 PM48 °FPartly sunny.18 mph62%29.95 "HgN/A
1:30 PM48 °FSunny.23 mph62%29.98 "Hg10 mi
1:00 PM48 °FSunny.22 mph62%30.01 "Hg10 mi
12:30 PM46 °FSunny.21 mph62%30.01 "Hg10 mi
11:30 AM43 °FSunny.16 mph71%30.01 "Hg10 mi
11:00 AM43 °FSunny.15 mph66%30.01 "Hg10 mi
10:30 AM41 °FSunny.13 mph70%30.04 "Hg10 mi
10:00 AM39 °FSunny.12 mph75%30.04 "Hg10 mi
9:30 AM37 °FSunny.12 mph75%30.04 "Hg10 mi
9:00 AM36 °FSunny.12 mph81%30.07 "Hg10 mi
8:30 AM36 °FSunny.9 mph81%30.07 "Hg10 mi
8:00 AM34 °FSunny.10 mph87%30.07 "Hg10 mi
7:30 AM34 °FClear.10 mph87%30.07 "Hg10 mi
7:00 AM32 °FClear.9 mph93%30.09 "Hg10 mi
6:30 AM32 °FClear.8 mph93%30.09 "Hg10 mi
6:06 AM32 °FClear.7 mph93%30.09 "Hg10 mi
5:47 AM32 °FClear.7 mph93%30.09 "Hg10 mi
5:00 AM34 °FClear.7 mph87%30.09 "Hg10 mi
4:30 AM34 °FClear.5 mph87%30.09 "HgN/A
4:00 AM32 °FClear.6 mph93%30.12 "HgN/A
3:30 AM34 °FClear.5 mph87%30.12 "HgN/A
3:00 AM32 °FClear.5 mph93%30.12 "HgN/A
2:30 AM32 °FClear.6 mph93%30.15 "HgN/A
2:00 AM32 °FClear.5 mph93%30.15 "HgN/A
1:30 AM34 °FClear.3 mph87%30.15 "HgN/A
1:00 AM34 °FClear.3 mph93%30.15 "HgN/A
12:30 AM32 °FClear.3 mph93%30.15 "HgN/A
12:00 AM32 °FClear.2 mph93%30.15 "HgN/A
11:30 PM
Fri, Feb 27
34 °FClear.2 mph87%30.15 "HgN/A
11:00 PM34 °FClear.3 mph87%30.18 "Hg10 mi
10:30 PM34 °FClear.2 mph93%30.18 "Hg10 mi
10:00 PM36 °FClear.2 mph87%30.18 "Hg10 mi
9:30 PM37 °FClear.5 mph81%30.18 "Hg10 mi
9:00 PM37 °FClear.5 mph81%30.18 "Hg10 mi
8:30 PM37 °FClear.7 mph81%30.18 "Hg10 mi
8:00 PM37 °FClear.8 mph81%30.18 "Hg10 mi
7:30 PM37 °FClear.3 mph81%30.18 "Hg10 mi
7:00 PM39 °FPassing clouds.5 mph70%30.15 "HgN/A
6:30 PM41 °FPassing clouds.7 mph66%30.15 "HgN/A
6:00 PM43 °FPassing clouds.7 mph61%30.15 "HgN/A
5:30 PM45 °FPassing clouds.9 mph57%30.12 "HgN/A
5:00 PM45 °FPassing clouds.13 mph57%30.12 "HgN/A
4:30 PM46 °FPassing clouds.12 mph53%30.12 "HgN/A
4:00 PM46 °FPassing clouds.12 mph53%30.12 "HgN/A
3:30 PM45 °FScattered clouds.9 mph61%30.12 "HgN/A
3:00 PM46 °FScattered clouds.12 mph57%30.12 "HgN/A
Weather by CustomWeather, © 2015

See weather overviewHow to use our weather pages